Starlink 36123

operational
NORAD ID: 67007 Int'l Des: 2025-293 Owner: SPXS Country: US Constellation: starlink
LEOCIRCULAR

Starlink 36123について

説明を読み込み中...

リアルタイム位置

3D地球を読み込み中...

次回通過

高度履歴

Altitude vs Time

uPlot chart will show altitude changes over time

軌道要素

1 67007C 25293E 25346.10187500 -.00470410 00000+0 -66720-3 0 3460
2 67007 69.9975 325.9332 0004134 272.2472 182.7964 16.05858871 19
Epoch: Dec 12, 2025 • Age: 59 hours

現在のステータス

高度 286.5 km
速度 7.74 km/s
衛星直下点 -67.51°S, 16.17°E
打ち上げ日 Dec 10, 2025
運用期間 3 days
タイプ internet

技術仕様

分類 Payload
質量 575.00 kg
乾燥質量 530.00 kg
総質量 575.00 kg
長さ 0.30 m
直径 4.10 m
スパン 29.00 m
形状 Box + pan
製造者 SPXS
バスタイプ Starlink V2MO
フェーズステータス In Orbit
所有者/国 SPXS/US

大規模コンステレーション

Loading constellations...